TIME,DELAY(SENSOR),PRES,T(CTD),SAL,OXYGEN,RAWTEMP,T(OPTODE),TCPHASE,FLUOR,BETA(BETA700),BETA(BETA412),BETA(BETA440),CDOM,C(CSC),ED(ED412.40),ED(ED444.00),ED(ED489.70),ED(ED554.30),LU(LU411.80),LU(LU443.40),LU(LU489.60),LU(LU554.10),COMP,TILTX,TILTX(TILTY),CHECK
1366926518,5809,497.3699951171875000,7.3797998428344730,34.0984992980957000,103.4160003662109400,576.0369262695312000,7.3556818962097170,45.9612617492675800,51,103,89,80,76,14786,2147745289,2147425965,2148006080,2147873993,2147626779,2147076525,2148240987,2147197677,1189,4,13,52891
1366926636,5812,485.3999938964844000,7.4946999549865720,34.0875015258789060,113.7242965698242200,572.1400146484375000,7.4806389808654785,44.8576011657714840,51,104,88,81,76,14785,2147744073,2147425627,2148005056,2147874532,2147625161,2147079213,2148238756,2147195382,90,4,12,34968
1366926751,5808,474.2799987792969000,7.6911001205444340,34.0951004028320300,118.6588973999023400,566.1265258789062000,7.6731991767883300,44.2809104919433600,51,103,85,81,76,14785,2147742089,2147426377,2148004041,2147872758,2147625088,2147074230,2148241362,2147202121,2637,4,13,33472
1366926880,5808,462.7600097656250000,7.9029998779296875,34.0792999267578100,131.2019042968750000,558.3809814453125000,7.9207611083984375,42.9873504638671900,50,102,87,80,75,14790,2147744557,2147424786,2148002102,2147872064,2147621010,2147079030,2148241572,2147191963,2336,3,13,35726
1366927019,5807,451.3500061035156000,8.1308002471923830,34.0867996215820300,136.6607971191406200,551.9616088867188000,8.1255550384521480,42.3956298828125000,50,104,88,80,74,14788,2147741019,2147424685,2148004800,2147875136,2147620452,2147087926,2148236790,2147198582,1514,4,13,56219
1366927158,5809,440.5499877929687500,8.4387998580932620,34.0793991088867200,153.5755004882812500,542.6383056640625000,8.4223823547363280,40.8246803283691400,50,103,88,79,74,14789,2147743094,2147424603,2148001600,2147874797,2147619501,2147089874,2148236699,2147204214,343,4,13,43727
1366927300,5811,429.5000000000000000,8.6655998229980470,34.0802993774414060,163.4797058105468800,534.8527221679688000,8.6697158813476560,39.9230690002441400,50,104,85,81,74,14787,2147738285,2147427245,2148004964,2147877220,2147618742,2147091538,2148230875,2147198921,3069,4,13,16534
1366927439,5807,418.0499877929687500,8.9525003433227540,34.0881996154785160,167.1705932617187500,526.0938110351562000,8.9473991394042970,39.4949798583984400,50,104,89,79,73,14785,2147739282,2147423552,2148004992,2147874340,2147620571,2147086400,2148232731,2147200201,1762,3,14,39472
1366927568,5805,406.6900024414062500,9.2320995330810550,34.0887985229492200,173.9866943359375000,516.9915771484375000,9.2353467941284180,38.8422698974609400,50,103,87,79,73,14790,2147740763,2147426112,2148003245,2147875282,2147614912,2147093284,2148226560,2147200566,526,3,13,27151
1366927695,5810,395.2699890136719000,9.5410003662109380,34.0971984863281250,180.2424011230468800,508.0302124023437500,9.5182428359985350,38.2506103515625000,49,105,87,79,71,14787,2147733376,2147422811,2148003675,2147874230,2147616475,2147092818,2148228836,2147202852,3143,4,13,38172
1366927824,5807,384.2099914550781000,9.7832002639770500,34.1012992858886700,185.7664031982422000,499.0430908203125000,9.8013725280761720,37.7217712402343750,49,104,84,80,72,14789,2147733622,2147422710,2148004278,2147874550,2147615817,2147100946,2148226368,2147202386,2123,4,13,38147
1366927963,5808,373.3800048828125000,10.0506000518798830,34.1081008911132800,191.2640075683593800,491.4461975097656000,10.0402698516845700,37.2318916320800800,49,105,85,81,71,14788,2147734838,2147423936,2148002770,2147878427,2147609865,2147101037,2148222857,2147205019,1127,4,13,28102
1366928114,5805,362.9500122070312500,10.4902000427246100,34.1185989379882800,197.6134033203125000,477.7900085449219000,10.4687299728393550,36.5986213684082000,48,105,86,79,69,14788,2147728685,2147425115,2148004242,2147874889,2147609618,2147097234,2148224484,2147199259,758,3,13,49775
1366928262,5810,351.6099853515625000,10.7784996032714840,34.1277999877929700,204.3979949951172000,467.2666015625000000,10.7980899810791020,36.0080795288085940,49,103,84,81,71,14785,2147733824,2147426038,2148002075,2147875337,2147608941,2147102674,2148224128,2147205275,3109,3,13,45307
1366928389,5810,340.3699951171875000,11.2884998321533200,34.1278991699218750,203.6405944824218800,451.9908142089844000,11.2749900817871100,35.8035812377929700,49,103,87,79,70,14784,2147726473,2147427492,2148006966,2147876288,2147607168,2147106432,2148221348,2147205238,2839,3,13,19429
1366928518,5808,328.6300048828125000,11.5431003570556640,34.1402015686035160,205.6528930664062500,443.5351867675781000,11.5383901596069340,35.5460090637207000,47,103,83,81,69,14786,2147734701,2147427053,2148008155,2147877769,2147602797,2147107282,2148219849,2147205010,1696,3,13,33892
1366928633,5806,318.0700073242187500,11.7762002944946290,34.1529998779296900,208.3937988281250000,434.8698120117187500,11.8079204559326170,35.2452201843261700,49,103,87,79,69,14782,2147728594,2147428251,2148018102,2147875684,2147602843,2147114139,2148216411,2147201929,210,3,14,37376
1366928760,5809,307.1700134277344000,12.3447999954223630,34.1824989318847660,213.2518005371093800,417.5350952148437500,12.3459100723266600,34.6895790100097660,49,103,84,81,69,14786,2147729600,2147429074,2148018304,2147877485,2147601993,2147116352,2148219849,2147200795,2561,3,14,30221
1366928902,5808,296.5000000000000000,12.7634000778198240,34.2149009704589840,213.7550048828125000,401.9591064453125000,12.8280897140502930,34.4168586730957000,49,103,89,80,68,14784,2147725696,2147434624,2148029723,2147872073,2147599360,2147121636,2148221842,2147201353,2162,4,13,2623
1366929053,5808,286.2000122070312500,13.6245002746582030,34.2793998718261700,217.6992034912109400,376.3656005859375000,13.6180696487426760,33.8035202026367200,48,104,87,80,67,14775,2147723904,2147435392,2148042468,2147875776,2147596379,2147133604,2148225234,2147206272,2523,3,14,6724
1366929213,5808,274.5599975585937500,14.4659996032714840,34.3706016540527340,217.3695068359375000,348.3987121582031000,14.4784898757934570,33.4006690979003900,49,103,86,81,67,14781,2147722422,2147444224,2148060864,2147872859,2147590948,2147138395,2148229824,2147204608,1335,3,14,30225
1366929340,5810,263.1199951171875000,14.9376001358032230,34.4156990051269500,216.9510040283203000,333.3424072265625000,14.9406795501708980,33.2001190185546900,48,104,86,79,66,14773,2147723373,2147454966,2148091126,2147873179,2147589513,2147149814,2148241005,2147210605,434,3,13,41015
1366929457,5811,252.1100006103515600,15.8083000183105470,34.5023002624511700,216.5561981201172000,306.4313049316406000,15.7653398513793950,32.8286209106445300,48,107,88,81,65,14775,2147721682,2147470637,2148131126,2147875090,2147584740,2147161051,2148258313,2147212461,2471,3,14,34569
1366929584,5811,240.8099975585937500,16.5013999938964840,34.5882987976074200,215.0522003173828000,280.8836059570312500,16.5468807220459000,32.5430183410644500,48,103,87,80,65,14772,2147719817,2147493641,2148187730,2147870884,2147579611,2147182299,2148282267,2147214080,2573,3,14,59849
1366929711,5811,230.6999969482422000,16.9733009338378900,34.6579017639160160,215.2864074707031200,265.7284851074219000,17.0100708007812500,32.3151397705078100,49,106,88,80,65,14771,2147722980,2147523145,2148263433,2147872045,2147580160,2147209380,2148313033,2147220214,1003,3,14,56180
1366929853,5807,220.1600036621093800,17.8733005523681640,34.7728004455566400,212.4416961669922000,238.3085937500000000,17.8476104736328120,32.0846900939941400,50,104,89,81,66,14769,2147730569,2147570093,2148368384,2147869668,2147581494,2147241709,2148367049,2147218432,258,3,14,21668
1366930028,5809,208.9900054931640600,18.1823997497558600,34.8223991394043000,212.2897033691406200,226.3572998046875000,18.2125797271728500,31.9266204833984380,51,110,88,80,64,14757,2147744621,2147645833,2148519881,2147873344,2147581193,2147289051,2148437942,2147232896,3175,2,14,22940
1366930247,5806,198.8300018310547000,18.9568004608154300,34.9184989929199200,212.7555999755859400,202.0720062255859400,18.9542903900146500,31.5668506622314450,55,110,89,81,65,14755,2147760310,2147740635,2148712301,2147871561,2147590125,2147351542,2148529965,2147233773,850,2,15,25151
1366930350,5809,194.4700012207031200,19.1242008209228500,34.9393005371093750,210.7725067138672000,197.1080932617187500,19.1059303283691400,31.6070003509521500,56,113,89,82,64,14751,2147777618,2147800265,2148825197,2147874889,2147597485,2147385682,2148584210,2147241088,3588,2,15,2261
1366930444,5809,190.8300018310547000,19.3791999816894530,34.9673004150390600,210.1943969726562500,188.4443969726562500,19.3706493377685550,31.5204200744628900,60,112,86,80,64,14750,2147793682,2147852114,2148930176,2147875894,2147601088,2147425581,2148634989,2147243940,3561,2,15,23322
1366930547,5808,186.8999938964843800,19.4248008728027340,34.9761009216308600,210.5005035400390600,186.7684936523437500,19.4218692779541000,31.4807090759277340,60,115,88,80,64,14743,2147817746,2147924580,2149061202,2147876452,2147607789,2147461897,2148696868,2147244900,2425,2,15,33435
1366930650,5808,182.7299957275390600,19.4370002746582030,34.9786987304687500,210.5233001708984400,186.2832946777343800,19.4367008209228500,31.4729194641113280,61,113,88,80,65,14743,2147844763,2148005897,2149207652,2147876790,2147624786,2147512393,2148765732,2147250496,2295,2,15,15151
1366930737,5808,178.6699981689453000,19.4634990692138670,34.9812011718750000,210.4850006103515600,185.3932952880859400,19.4638996124267580,31.4629993438720700,60,115,89,81,63,14744,2147888768,2148104832,2149376530,2147877851,2147638866,2147566272,2148845622,2147256182,2283,2,15,44952
1366930804,5807,175.2100067138672000,19.6002006530761720,34.9970016479492200,210.2344970703125000,180.8314971923828000,19.6033306121826170,31.4146099090576170,63,112,90,81,63,14743,2147929709,2148197888,2149535469,2147880466,2147653961,2147624466,2148920100,2147261513,2085,2,15,54516
1366930883,5804,171.6499938964843800,19.7898998260498050,35.0195007324218750,210.3713989257812500,174.9111938476562500,19.7843208312988280,31.3271102905273440,66,115,88,80,63,14739,2147981760,2148314340,2149735808,2147881773,2147678281,2147687945,2149014784,2147267803,1168,2,16,50155
1366930974,5807,167.7500000000000000,20.1382999420166000,35.0621986389160160,210.6437988281250000,164.3298950195312500,20.1079406738281250,31.1693305969238280,72,120,88,83,64,14729,2148051556,2148465682,2149983433,2147883108,2147705426,2147768548,2149126793,2147283108,3536,2,15,64559
1366931068,5810,163.7400054931640600,20.2558994293212900,35.0788002014160160,213.1022949218750000,159.7380981445312500,20.2484302520751950,30.9755592346191400,81,122,86,82,62,14722,2148144877,2148654226,2150287853,2147886262,2147740114,2147870244,2149269622,2147290249,2195,1,16,26256
1366931159,5811,159.8600006103515600,20.3561992645263670,35.0908012390136700,213.8726959228515600,156.4089050292968800,20.3503208160400400,30.8896903991699220,82,124,90,82,62,14715,2148254592,2148859739,2150628955,2147884909,2147782482,2147983030,2149407058,2147299492,1082,2,16,55504
1366931250,5808,155.8899993896484400,20.4071006774902340,35.0965995788574200,214.3545989990234400,154.7462005615234400,20.4012107849121100,30.8421897888183600,85,121,91,82,63,14714,2148403145,2149125750,2151041700,2147889664,2147845595,2148115611,2149590619,2147315218,764,2,15,38255
1366931343,5808,151.9199981689453000,20.5335998535156250,35.1087989807128900,213.9073028564453000,150.7850952148437500,20.5224800109863280,30.8127593994140620,82,121,89,83,63,14718,2148603629,2149463094,2151569947,2147895533,2147923401,2148282550,2149815021,2147333028,899,2,15,1754
1366931446,5806,148.0399932861328000,20.6658992767334000,35.1227989196777340,213.9416961669922000,146.2951965332031200,20.6599693298339840,30.7514095306396500,88,120,90,83,63,14715,2148825408,2149804964,2152099373,2147902281,2148010185,2148452864,2150032548,2147346349,308,2,15,4799
1366931561,5807,143.8800048828125000,20.8097000122070300,35.1358985900878900,214.2418060302734400,141.6083984375000000,20.8035297393798830,30.6732292175292970,94,121,90,83,62,14705,2149090404,2150208530,2152710555,2147910317,2148113270,2148644214,2150274139,2147366884,3564,2,16,31700
1366931676,5809,139.1799926757812500,21.1919002532959000,35.1598014831543000,214.2088012695312500,130.5045013427734400,21.1438694000244140,30.5279502868652340,101,125,91,83,62,14686,2149515419,2150845110,2153658285,2147920978,2148271213,2148919990,2150627163,2147399424,3012,2,15,13290
1366931743,5803,135.5299987792968800,21.3216991424560550,35.1716003417968750,214.1147003173828000,125.0606002807617200,21.3108406066894530,30.4613094329834000,108,123,92,83,62,14682,2149925714,2151428022,2154493202,2147934518,2148413952,2149164717,2150945051,2147429449,237,2,15,2579
1366931822,5811,130.9700012207031200,21.5011997222900400,35.1938018798828100,215.1401977539062500,120.2510986328125000,21.4584197998046880,30.3440608978271500,112,127,89,83,63,14680,2150551040,2152321846,2155764699,2147955702,2148636004,2149548178,2151427629,2147465956,398,2,15,57067
1366931889,5805,127.1399993896484400,21.6054000854492200,35.1972007751464840,216.5502014160156200,116.1194992065429700,21.5852394104003900,30.2168102264404300,115,131,91,84,61,14666,2151198994,2153227090,2157065051,2147977746,2148879972,2149949385,2151928932,2147511963,850,2,15,22449
1366931958,5807,123.3499984741211000,21.6700992584228500,35.2070999145507800,217.2032012939453000,114.0793991088867200,21.6478900909423830,30.1561698913574220,117,132,92,83,60,14674,2151952960,2154254729,2158487396,2148004754,2149158692,2150388242,2152461467,2147563538,1155,2,15,30683
1366932037,5756,119.4000015258789000,21.7679004669189450,35.2234001159668000,218.0839996337890600,111.0190963745117200,21.7418804168701170,30.0708103179931640,121,124,91,82,62,14669,2152913673,2155485248,2160086134,2148043958,2149521517,2150913819,2153059584,2147626806,1770,2,16,43359
1366932128,5810,115.6600036621093800,21.9729995727539060,35.2727012634277340,222.7740936279297000,103.9850997924804700,21.9580307006835940,29.7424507141113280,125,124,88,83,62,14667,2154126546,2156995145,2162011629,2148086226,2150010404,2151575808,2153798299,2147690779,2754,1,16,63923
1366932255,5804,112.2300033569336000,22.2134990692138670,35.3109016418457000,230.4284973144531200,96.0304031372070300,22.2026596069335940,29.2662506103515620,132,121,91,82,62,14661,2155762304,2158987437,2164431222,2148143853,2150832566,2152616667,2154838052,2147789988,1611,2,15,14094
1366932405,5807,107.7699966430664000,22.5592002868652340,35.3708000183105500,239.2337036132812500,85.0008010864257800,22.5422191619873050,28.7149391174316400,116,121,88,83,59,14652,2158489856,2162418532,2168485595,2148253997,2152472347,2154535990,2156696704,2147965696,1459,2,15,18891
1366932508,5805,104.1200027465820300,22.4176006317138670,35.2850990295410160,234.4141998291015600,88.9765090942382800,22.4197807312011720,28.9878196716308600,150,125,92,84,59,14615,2161578249,2165975332,2172302345,2148364909,2153701458,2155975734,2158111350,2148111186,409,2,15,30861
1366932599,5807,100.9899978637695300,22.5748004913330080,35.3036003112793000,231.6054992675781200,83.5385665893554700,22.5872707366943360,29.0510196685791000,154,131,88,83,60,14599,2164996882,2169989028,2176436845,2148468169,2154847908,2157315913,2159454235,2148253750,3416,2,16,15817
1366932678,5808,97.9199981689453100,22.7290992736816400,35.3287010192871100,234.3262939453125000,79.3778762817382800,22.7155094146728500,28.8702507019042970,138,125,90,82,60,14597,2169318409,2175195236,2181674678,2148637668,2156761124,2159459602,2161465563,2148476397,2877,2,15,9858
1366932733,5809,95.1299972534179700,22.8031997680664060,35.3375015258789060,235.2742004394531200,76.7483520507812500,22.7965793609619140,28.7930107116699220,114,123,88,82,59,14615,2173441627,2179908251,2186246674,2148827264,2158800320,2161740352,2163482102,2148694966,3249,2,16,50926
1366932788,5809,92.2900009155273400,22.9032993316650400,35.3516006469726560,237.2364959716797000,73.4537963867187500,22.8981990814209000,28.6607303619384770,92,118,90,83,59,14643,2177601078,2184447222,2190481627,2149009526,2161318244,2164645760,2165969444,2148948278,236,2,15,5873
1366932843,5806,89.4899978637695300,22.9421005249023440,35.3563995361328100,238.5939941406250000,72.1311264038086000,22.9390106201171880,28.5819892883300780,85,118,91,81,59,14645,2182012918,2189253549,2195102646,2149275328,2164188370,2167826733,2168561197,2149221293,112,1,16,32986
1366932898,5808,86.5299987792968800,22.9575996398925780,35.3601989746093750,239.3164978027343800,71.4768218994140600,22.9591999053955080,28.5408897399902340,82,120,89,83,58,14650,2187722450,2195561636,2201150829,2149606774,2167705947,2171738395,2171741083,2149541769,3378,1,16,23873
1366932953,5807,83.3600006103515600,22.9979991912841800,35.3415985107421900,239.4299011230468800,69.8098220825195300,23.0106391906738280,28.5148792266845700,77,119,91,83,58,14650,2193911341,2202187885,2207356114,2150048448,2172037010,2176570669,2175658194,2149965732,2532,1,16,30880
1366933011,5810,80.1399993896484400,23.0466995239257800,35.3222007751464840,238.1855010986328000,68.6985931396484400,23.0449504852294920,28.5573406219482420,74,121,90,83,56,14649,2201158454,2209416164,2214225545,2150607378,2176362578,2181526875,2179599414,2150397577,1481,2,15,24298
1366933066,5808,77.0000000000000000,23.2278003692626950,35.3488006591796900,238.0289001464843800,62.6196289062500000,23.2326793670654300,28.4883499145507800,71,118,91,84,56,14659,2208927725,2217257206,2221999625,2151262244,2181119798,2186922550,2184052205,2150890212,362,2,16,36309
1366933121,5804,73.9000015258789000,23.3260002136230470,35.3483009338378900,238.8453063964843800,60.2810211181640600,23.3049507141113280,28.4218997955322270,66,121,93,83,58,14654,2215502427,2223401664,2227539520,2151912868,2186631286,2192808713,2188529344,2151388918,190,2,15,51145
1366933176,5804,70.7900009155273400,23.3901004791259770,35.3521995544433600,239.5847930908203000,57.7044105529785160,23.3845996856689450,28.3562793731689450,64,122,91,85,58,14645,2224928886,2233208475,2237489261,2152899904,2193074130,2199777042,2193987035,2152014546,235,2,15,57119
1366933231,5809,67.5999984741211000,23.4328994750976560,35.3538017272949200,240.3011932373047000,56.0403709411621100,23.4360504150390620,28.3031406402587900,64,122,89,84,60,14641,2228178934,2235035913,2238259702,2153591680,2196737792,2202830326,2195491008,2152288960,309,2,16,47460
1366933286,5807,64.4899978637695300,23.5069999694824220,35.3526000976562500,240.5413970947265600,53.8946189880371100,23.5024204254150400,28.2654590606689450,64,119,93,84,58,14648,2233492772,2239825581,2242780672,2154847771,2201392530,2207249234,2198496018,2152756050,3532,2,16,41230
1366933344,5806,61.4399986267089840,23.5589008331298830,35.3484001159668000,240.4613037109375000,51.9144897460937500,23.5636806488037100,28.2444591522216800,62,123,92,85,56,14642,2222151954,2224813184,2224912420,2153887597,2196390016,2199952173,2190869440,2151960283,273,2,16,473
1366933399,5804,58.8199996948242200,23.6124000549316400,35.3431015014648440,240.6349945068359400,50.3693504333496100,23.6114997863769530,28.2174892425537100,62,122,93,83,55,14630,2255183725,2260275520,2262341083,2158047835,2219132534,2225121106,2211795968,2154527003,256,2,16,35267
1366933454,5808,56.4500007629394500,23.6700992584228500,35.3478012084960940,240.5585937500000000,48.6170806884765600,23.6657390594482420,28.1990394592285160,63,123,92,84,57,14633,2276155666,2281780736,2284173238,2161252553,2235301522,2242214217,2225389760,2156198134,3395,2,16,39664
1366933509,5807,54.3499984741210940,23.7588996887207030,35.3538017272949200,240.4797973632812500,46.1600608825683600,23.7418193817138670,28.1720409393310550,60,124,93,85,58,14626,2284480100,2289615506,2292165330,2163452882,2241782080,2248103734,2229479460,2157105115,3568,2,16,4700
1366933564,5810,52.5699996948242200,23.7987003326416000,35.3580017089843750,240.6501007080078000,44.2931289672851560,23.7996406555175780,28.1410694122314450,61,122,89,85,57,14630,2291848594,2295849307,2297666230,2164852809,2248780928,2254484653,2233691355,2157682925,433,2,16,17478
1366933619,5805,50.9000015258789060,23.8376007080078120,35.3619003295898440,240.9553985595703000,42.8324699401855500,23.8449001312255860,28.1094093322753900,61,122,92,84,59,14628,2294606445,2297573074,2298710070,2165701833,2253464822,2258283419,2235784877,2158043702,937,1,16,45493
1366933697,5809,48.1500015258789060,23.8955001831054700,35.3639984130859400,241.6528015136718800,40.8491897583007800,23.9063606262207030,28.0536594390869140,59,120,90,85,54,14633,2305841417,2306163949,2305414354,2169001078,2271148900,2274682605,2247322806,2159777737,299,1,16,47644
1366933752,5807,45.5999984741210940,23.9407005310058600,35.3660011291503900,242.1224975585937500,39.5015296936035160,23.9481391906738280,28.0161094665527340,57,122,91,83,57,14639,2328441161,2329015012,2329428288,2175336475,2288878592,2290869357,2258625106,2161941604,3580,2,16,21012
1366933807,5809,42.9900016784668000,24.0650005340576170,35.3695983886718750,242.2660980224609400,34.8464393615722660,24.0925102233886720,27.9520397186279300,57,122,92,84,58,14631,2341103405,2339892324,2339680630,2180486326,2306159716,2305391524,2267943606,2163710006,187,1,16,62851
1366933862,5809,40.6500015258789060,24.1942996978759770,35.3510017395019500,242.3408050537109400,31.4909191131591800,24.1966400146484380,27.9073696136474600,57,121,90,85,54,14625,2353256173,2351747465,2351442020,2185444790,2323535862,2320221485,2277694262,2165433371,3122,1,17,55674
1366933917,5810,38.6100006103515600,24.3101997375488280,35.3606986999511700,242.3226013183593800,27.7825298309326170,24.3117904663085940,27.8623695373535160,56,122,90,84,63,14624,2374707638,2373881280,2374050377,2191931556,2342052937,2336792658,2288917796,2167844854,2802,1,16,1745
1366933972,5808,36.8699989318847660,24.4776992797851560,35.3773994445800800,242.6723937988281200,22.4939804077148440,24.4761295318603500,27.7816009521484380,56,124,91,85,53,14621,2376719488,2377188635,2378671003,2197876315,2349960676,2341493156,2290953801,2169232896,2471,1,16,16462
1366934050,5810,34.3600006103515600,24.5662002563476560,35.3750000000000000,242.3609924316406200,19.2967891693115230,24.5755596160888670,27.7559890747070300,55,122,90,86,53,14612,2383755355,2382811913,2382432502,2201912941,2371553481,2357196973,2299550985,2171373284,2179,2,16,46739
1366934105,5807,32.0000000000000000,24.6247005462646500,35.3765983581543000,241.7787017822265600,17.3078098297119140,24.6374397277832030,27.7572898864746100,55,125,91,84,56,14614,2421467867,2422984987,2425344640,2218518765,2414249481,2395561737,2326888813,2177190235,1730,1,15,4739
1366934160,5806,29.7199993133544920,24.7388000488281250,35.3508987426757800,240.7769927978515600,13.6865501403808600,24.7501506805419920,27.7570590972900400,55,120,92,85,62,14617,2425594898,2425362002,2428859840,2228805997,2433448557,2410065142,2335629760,2179272768,1037,2,16,7731
1366934215,5808,27.8500003814697270,24.8668003082275400,35.3160018920898440,239.7185974121093800,9.2933626174926760,24.8869991302490230,27.7500591278076170,53,119,91,84,57,14625,2430556169,2430054985,2434422582,2235781933,2456595456,2429769005,2349080704,2183095067,1057,0,17,34066
1366934282,5808,26.2500000000000000,24.8931999206542970,35.3125991821289060,239.3240966796875000,8.3053617477417000,24.9177894592285160,27.7555198669433600,52,116,86,84,53,14639,2453655542,2455354870,2461823826,2250842560,2475920100,2446116333,2359834834,2186486107,1179,1,16,57677
